Regional Weather Roundup
Issued by NWS San Angelo, TX

Home | Current Version | Previous Version | Text Only | Print | Product List | Glossary On
Versions: 1 2 3 4 5 6 7 8 9 10 11 12 13 14 15 16 17 18 19 20 21 22 23 24 25 26 27 28 29 30 31 32 33 34 35 36 37 38 39 40 41 42 43 44 45 46 47 48 49 50
000
ASUS44 KSJT 240210
RWRSJT
WEST CENTRAL TEXAS REGIONAL WEATHER ROUNDUP
NATIONAL WEATHER SERVICE SAN ANGELO TX
900 PM CDT FRI JUN 23 2017

NOTE: "FAIR" INDICATES FEW OR NO CLOUDS BELOW 12,000 FEET WITH NO
SIGNIFICANT WEATHER AND/OR OBSTRUCTIONS TO VISIBILITY.

TXZ049-054-064>066-071>073-076>078-098-099-113-114-127-128-139-140-
154-155-168>170-240300
...LOCATIONS ACROSS WEST CENTRAL TEXAS...

CITY           SKY/WX    TMP DP  RH WIND       PRES   REMARKS
SAN ANGELO       N/A     74  66  76 MISG      29.96R THUNDER
ABILENE        CLOUDY    90  65  43 E5        29.87R
DYESS AFB      CLOUDY    88  67  49 NE3       29.86R
JUNCTION       CLEAR     96  64  34 SE9       29.82R
SWEETWATER     CLOUDY    82  60  46 N3        29.96R
BROWNWOOD      LGT RAIN  91  66  43 E8        29.83R
COLEMAN        CLOUDY    92  66  41 E8        29.84R
SONORA         PTCLDY    97  61  30 SE8G15    29.87R
OZONA          FAIR      95  54  24 S6        29.90R
BRADY          NOT AVBL
$$

TEXAS PANHANDLE/OKLAHOMA PANHANDLE

CITY           SKY/WX    TMP DP  RH WIND       PRES   REMARKS
AMARILLO       CLEAR     73  51  46 NE22G30   30.10R
BORGER         CLEAR     76  51  41 NE13      30.10R
CANADIAN       CLEAR     74  53  47 NE13      30.09R
DALHART        CLEAR     72  51  47 NE18      30.16R
DUMAS          CLEAR     70  51  49 NE13      30.15R
GUYMON         NOT AVBL
HEREFORD       CLEAR     80  54  40 E14       30.09R
PAMPA          CLEAR     72  52  49 NE15      30.12R
PERRYTON       CLEAR     72  50  47 NE10      30.13R
$$

SOUTHERN PANHANDLE/SOUTH PLAINS/ROLLING PLAINS

CITY           SKY/WX    TMP DP  RH WIND       PRES   REMARKS
LUBBOCK        CLOUDY    86  62  44 NE18G29   30.00R
SNYDER         CLOUDY    83  61  47 SW13      29.98R
CHILDRESS      MOCLDY    85  48  27 NE18G31   29.98R
SEMINOLE       CLOUDY    81  55  41 W8        29.96R
$$

PERMIAN BASIN

CITY           SKY/WX    TMP DP  RH WIND       PRES   REMARKS
MIDLAND        CLOUDY    81  55  40 E22G28    29.91R
ODESSA         CLOUDY    81  56  42 E21G26    29.93F
WINK           CLOUDY    84  56  38 MISG      29.86R
$$

FAR WEST/SOUTHWEST MOUNTAINS/TRANS PECOS

CITY           SKY/WX    TMP DP  RH WIND       PRES   REMARKS
ALPINE         PTCLDY    87  44  22 NE6       30.06R
DRYDEN           N/A     97  60  29 E17       29.79R
EL PASO        PTCLDY    97  57  26 E25G35    29.85R
FORT STOCKTON  CLOUDY    87  57  35 NE25G33   29.92R THUNDER
GUADALUPE PASS CLEAR     80  52  37 NE43G53   30.06S
MARFA          CLOUDY    79  52  38 N7        30.02R
PECOS          CLOUDY    78  64  61 SE15      29.88R
$$

DALLAS/FORT WORTH METROPLEX

CITY           SKY/WX    TMP DP  RH WIND       PRES   REMARKS
DFW AIRPORT    PTCLDY    93  71  48 E10       29.83R
FTW MEACHAM    CLEAR     93  75  55 E9        29.83R
DAL-EXECUTIVE  CLEAR     90  76  63 SE8       29.84R
GRAND PRAIRIE  CLEAR     91  72  52 E8        29.85R
ADDISON        CLEAR     93  70  46 E5        29.85R
MESQUITE       CLEAR     87  74  66 CALM      29.84R
LANCASTER      PTCLDY    89  76  65 E3        29.85R
$$

NORTH CENTRAL TEXAS

CITY           SKY/WX    TMP DP  RH WIND       PRES   REMARKS
SHRMAN/DENISON PTCLDY    86  74  66 N8        29.89R
GAINESVILLE    CLOUDY    88  72  58 E10       29.90R
BRIDGEPORT     PTCLDY    88  67  48 CALM      29.87R
DENTON         CLEAR     91  74  57 E10       29.84R
WAXAHACHIE     PTCLDY    87  76  70 CALM      29.86R
GRANBURY       CLOUDY    91  73  54 E3        29.85R
$$

WESTERN NORTH TEXAS

CITY           SKY/WX    TMP DP  RH WIND       PRES   REMARKS
WICHITA FALLS  MOCLDY    88  71  57 NE13      29.89R
VERNON         MOCLDY    90  61  37 NE17      29.92R
BRECKENRIDGE   MOCLDY    94  65  38 E9        29.84R
COMANCHE       PTCLDY    89  69  51 E6        29.84R
$$

CENTRAL AND SOUTH CENTRAL TEXAS

CITY           SKY/WX    TMP DP  RH WIND       PRES   REMARKS
AUSTIN/BERGSTM PTCLDY    93  71  48 SE14      29.80R
WACO           CLEAR     91  74  57 SE13      29.81R
HILLSBORO      CLEAR     87  78  73 E6        29.84R
TEMPLE         CLEAR     90  75  61 SE14      29.82R
KILLEEN-GRAY   CLEAR     90  72  54 E14       29.80R
FORT HOOD      CLEAR     90  73  56 SE15      29.79R
GEORGETOWN     CLEAR     93  70  46 SE9       29.81R
LAGO VISTA     FAIR      91  69  47 SE7       29.84R
SAN MARCOS     CLEAR     90  72  55 SE15G22   29.82R
NEW BRAUNFELS  CLEAR     90  71  53 SE14      29.80R
RANDOLPH AFB   CLEAR     89  73  59 SE12      29.82R
SAN ANTONIO    PTCLDY    91  70  49 SE18      29.81R
STINSON        CLEAR     92  71  50 SE14      29.78R
PLEASANTON     NOT AVBL
LA GRANGE      PTCLDY    89  75  63 SE8       29.82R
GIDDINGS       CLOUDY    89  70  54 SE9       29.83R
$$

EAST TEXAS

CITY           SKY/WX    TMP DP  RH WIND       PRES   REMARKS
PARIS            N/A     83  74  74 N7        29.88R
CLARKSVILLE    NOT AVBL
TYLER          CLOUDY    85  79  82 S5        29.86R
LONGVIEW       CLEAR     83  81  94 SE3       29.86R
PALESTINE      PTCLDY    85  78  78 SE6       29.86R
NACOGDOCHES    CLEAR     82  77  83 MISG      29.86R
$$

TEXAS HILL COUNTRY AND EDWARDS PLATEAU

CITY           SKY/WX    TMP DP  RH WIND       PRES   REMARKS
LLANO          CLEAR     95  66  38 SE7       29.83R
HORSESHOE BAY  FAIR      92  67  44 MISG      29.81R
KERRVILLE      CLEAR     92  70  48 SE7       29.84R
FREDERICKSBRG  CLEAR     91  63  39 SE6       29.85R
ROCKSPRINGS    CLEAR     90  64  43 S3        29.89R
HONDO          CLEAR     94  72  48 SE17G24   29.79R
UVALDE         CLEAR     94  67  42 E9        29.77R
DEL RIO        CLEAR     98  62  30 E10       29.71R
$$

SOUTHEAST TEXAS

CITY           SKY/WX    TMP DP  RH WIND       PRES   REMARKS
COLLEGE STN    PTCLDY    86  75  69 SE7       29.82R
CALDWELL       NOT AVBL
CROCKETT       CLEAR     84  77  79 CALM      29.89R
BRENHAM        PTCLDY    88  74  62 S6        29.84R
HUNTSVILLE     CLEAR     87  76  69 VRB3      29.86R
CONROE         CLEAR     83  76  79 SE8       29.85R
HOUSTON BUSH   PTCLDY    85  74  69 S12       29.85R
HOUSTON HOBBY  PTCLDY    84  76  76 S8        29.86R
PERLAND        CLEAR     85  77  77 S6        29.87R
WHARTON        CLEAR     81  74  78 SE8       29.86R
$$

THE UPPER TEXAS COAST

CITY           SKY/WX    TMP DP  RH WIND       PRES   REMARKS
ORANGE         PTCLDY    82  79  90 S6        29.90R
PORT ARTHUR    CLEAR     80  77  90 S7        29.88R
GALVESTON      CLEAR     83  81  94 S12       29.87R
ANGLETON       CLEAR     82  78  88 S7        29.86R
BAY CITY       CLEAR     83  77  83 SE3       29.85R
$$

TEXAS COASTAL BEND, RIO GRANDE PLAINS DEEP SOUTH TEXAS

CITY           SKY/WX    TMP DP  RH WIND       PRES   REMARKS
VICTORIA       PTCLDY    85  75  72 SE10      29.83R
BEEVILLE       MOCLDY    85  77  78 SE10      29.81R
ROCKPORT       PTCLDY    85  77  77 SE16      29.80R
PORT ARANSAS   PTCLDY    84  77  79 SE16G22   29.81R
PORT LAVACA    CLEAR     82  79  89 SE8       29.84R
CORPUS CHRISTI MOCLDY    86  78  77 SE13G21   29.80R
KINGSVILLE NAS PTCLDY    85  79  82 SE15G23   29.78R
COTULLA        PTCLDY    95  71  45 SE20      29.74R
LAREDO         CLEAR     98  68  37 E16       29.72R
BROWNSVILLE    PTCLDY    84  79  85 SE17      29.79R
PORT ISABEL    MOCLDY    85  79  82 SE20G28   29.77R
HEBBRONVILLE   CLEAR     90  74  60 SE14      29.78R
MCALLEN        PTCLDY    89  74  60 SE15G25   29.78R
WESLACO        CLOUDY    86  75  68 SE13      29.77R
FALFURRIAS     CLEAR     86  77  73 E12G22    29.77R
EDINBURG       CLEAR     89  73  59 SE14G22   29.77R
$$




USA.gov is the U.S. government's official web portal to all federal, state and local government web resources and services.